Content
SEND FEEDBACK

Daily
Averages
Monthly
Summary
United States of America

MERIZO, GUAM


Home > North America > United States > Guam
Elevation: 10 feet     Latitude: 13 14N     Longitude: 144 39E

WEATHER
 
SELECT A DAY
Number of Records: 351,545;   Date Range: 1/1/95 - 10/19/14
 
SHARE

PRINT THIS DATA

[ ← Previous Day ]
WEATHER ALMANAC - SEPTEMBER 19, 2013
[ Next Day → ]
[ °C ]   °F
Weather ElementAverageHighLow
Temperature74.1 °F78.8 °F (12:16 am) (1:07 pm)
Dewpoint73 °F77 °F (12:16 am) (7:00 pm)
Humidity96.3 %100 % (3:33 am)94 % (12:16 am)
Barometer28.63 in29.66 in (8:14 pm) (7:00 pm)
Wind Speed18.7 mph32.2 mph (11:30 pm)
Wind Gust43.7 mph (4:21 pm)
Weather ElementAverage
Visibility5.3 mi
Wind DirectionWNW (309 °)

Weather ElementTotal
Precipitation9.24 in
Heating Degree Days25.6 (Base 65)
Averaged from 185 records on September 19, 2013
WEATHER CONDITIONS BREAKOUT
WIND DIRECTION BREAKOUT
WEATHER BY HOUR - SEPTEMBER 19, 2013
[ °C ]   °F
Local TimeTemperatureDewpointHumidityBarometerVisibilityWind DirectionWind SpeedGust SpeedPrecipitationEventsConditions
12:16 AM78.8 °F77.0 °F94 %29.60 in9.0 miNW (310°)12.7 mphLight Drizzle
12:21 AM78.8 °F77.0 °F94 %29.60 in8.0 miNW (310°)19.6 mph23.0 mphRainRain
12:36 AM78.8 °F77.0 °F94 %29.60 in10.0 miNW (320°)11.5 mphRainLight Rain
12:41 AM78.8 °F77.0 °F94 %29.60 in10.0 miNW (320°)11.5 mphScattered Clouds
12:51 AM78.8 °F77.0 °F94 %29.60 in10.0 miNW (320°)11.5 mphLight Drizzle
12:58 AM78.3 °F77.0 °F96 %29.47 in10.0 miNW (310°)13.8 mph0.07 inRainHeavy Rain
1:09 AM78.8 °F77.0 °F94 %29.59 in10.0 miNW (310°)11.5 mphScattered Clouds
1:19 AM78.8 °F77.0 °F94 %29.59 in7.0 miNW (320°)16.1 mphLight Drizzle
1:34 AM78.8 °F77.0 °F94 %29.58 in7.0 miNW (310°)15.0 mphRainRain
1:44 AM77.0 °F75.2 °F94 %29.57 in10.0 miNW (320°)12.7 mphRainRain
1:54 AM77.0 °F75.2 °F94 %29.57 in10.0 miNW (320°)10.4 mphPartly Cloudy
1:58 AM77.2 °F75.7 °F95 %29.45 in10.0 miNW (320°)10.4 mph0.09 inPartly Cloudy
2:58 AM77.5 °F75.7 °F94 %29.44 in10.0 miNW (310°)11.5 mphMostly Cloudy
3:23 AM77.0 °F75.2 °F94 %29.56 in10.0 miNW (310°)11.5 mphRainRain
3:33 AM77.0 °F77.0 °F100 %29.56 in3.0 miNW (310°)17.3 mph21.9 mphRainLight Rain
3:38 AM77.0 °F75.2 °F94 %29.56 in1.8 miNW (310°)12.7 mph21.9 mphRainRain
3:43 AM77.0 °F75.2 °F94 %29.56 in3.0 miNW (310°)12.7 mphRainHeavy Rain
3:48 AM77.0 °F75.2 °F94 %29.56 in9.0 miNW (310°)15.0 mphRainRain
3:53 AM77.0 °F75.2 °F94 %29.56 in10.0 miNW (320°)12.7 mphRainLight Rain
3:58 AM77.2 °F75.9 °F96 %29.44 in10.0 miNW (320°)12.7 mph0.06 inRainLight Rain
4:01 AM77.0 °F75.2 °F94 %29.55 in10.0 miNW (320°)13.8 mphMostly Cloudy
4:07 AM77.0 °F75.2 °F94 %29.55 in10.0 miNW (320°)15.0 mphMostly Cloudy
4:12 AM77.0 °F75.2 °F94 %29.55 in10.0 miNW (320°)15.0 mphMostly Cloudy
4:17 AM77.0 °F75.2 °F94 %29.55 in10.0 miNW (320°)15.0 mphMostly Cloudy
4:22 AM75.2 °F73.4 °F94 %29.55 in10.0 miNW (320°)15.0 mphMostly Cloudy
4:27 AM73.4 °F71.6 °F94 %29.55 in10.0 miNW (320°)16.1 mphMostly Cloudy
4:58 AM78.4 °F77.0 °F95 %29.44 in10.0 miNW (310°)15.0 mph0.00 inMostly Cloudy
5:03 AM78.8 °F77.0 °F94 %29.56 in10.0 miNNW (340°)13.8 mphMostly Cloudy
5:07 AM78.8 °F77.0 °F94 %29.56 in9.0 miNNW (330°)13.8 mph25.3 mphRainHeavy Rain
5:23 AM78.8 °F77.0 °F94 %29.56 in10.0 miNNW (340°)18.4 mphRainLight Rain
5:28 AM78.8 °F77.0 °F94 %29.56 in10.0 miNNW (340°)18.4 mphRainLight Rain
5:31 AM78.8 °F77.0 °F94 %29.56 in10.0 miNNW (340°)17.3 mphOvercast
5:33 AM78.8 °F77.0 °F94 %29.56 in10.0 miNNW (330°)13.8 mphRainLight Rain
5:58 AM78.1 °F76.5 °F95 %29.45 in3.0 miNNW (340°)12.7 mph23.0 mph0.10 inLight Drizzle
5:59 AM77.0 °F77.0 °F100 %29.58 in2.5 miNorth (350°)11.5 mph23.0 mphOvercast
6:00 AM77.0 °F77.0 °F100 %29.58 in2.5 miNorth (360°)11.5 mph23.0 mphRainHeavy Rain
6:05 AM77.0 °F77.0 °F100 %29.58 in4.0 miNorth (350°)12.7 mph18.4 mphRainRain
6:12 AM78.8 °F77.0 °F94 %29.58 in6.0 miNNW (340°)18.4 mphMostly Cloudy
6:16 AM78.8 °F77.0 °F94 %29.58 in8.0 miNNW (340°)19.6 mphRainLight Rain
6:38 AM77.0 °F77.0 °F100 %29.59 in10.0 miNNW (330°)15.0 mph24.2 mphRainHeavy Rain
6:43 AM77.0 °F77.0 °F100 %29.59 in10.0 miNNW (330°)19.6 mph26.5 mphRainHeavy Rain
6:53 AM77.0 °F77.0 °F100 %29.60 in2.5 miNNW (340°)19.6 mph24.2 mphRainHeavy Rain
6:58 AM77.4 °F76.3 °F96 %29.48 in5.0 miNNW (340°)17.3 mph24.2 mph0.29 inRainHeavy Rain
7:03 AM77.0 °F75.2 °F94 %29.60 in10.0 miNNW (340°)18.4 mphRainRain
7:15 AM77.0 °F75.2 °F94 %29.60 in10.0 miNNW (330°)10.4 mphOvercast
7:26 AM77.0 °F75.2 °F94 %29.61 in10.0 miNNW (340°)12.7 mphRainLight Rain
7:31 AM77.0 °F77.0 °F100 %29.61 in10.0 miNNW (330°)13.8 mphRainLight Rain
7:36 AM77.0 °F77.0 °F100 %29.61 in10.0 miNorth (350°)17.3 mphRainHeavy Rain
7:41 AM77.0 °F77.0 °F100 %29.61 in2.5 miNW (320°)12.7 mph25.3 mphRainHeavy Rain
7:51 AM77.0 °F77.0 °F100 %29.61 in7.0 miWNW (300°)9.2 mphRainHeavy Rain
7:58 AM77.5 °F76.1 °F95 %29.49 in10.0 miWNW (300°)11.5 mph0.20 inRainLight Rain
8:03 AM78.8 °F77.0 °F94 %29.62 in10.0 miNW (320°)10.4 mphLight Drizzle
8:04 AM78.8 °F77.0 °F94 %29.62 in10.0 miNW (320°)10.4 mphMostly Cloudy
8:11 AM77.0 °F77.0 °F100 %29.62 in8.0 miWNW (300°)11.5 mphRainLight Rain
8:31 AM77.0 °F77.0 °F100 %29.62 in10.0 miNW (320°)11.5 mphRainLight Rain
8:36 AM77.0 °F77.0 °F100 %29.63 in10.0 miNW (320°)9.2 mphRainLight Rain
8:41 AM77.0 °F77.0 °F100 %29.63 in10.0 miNW (310°)9.2 mphRainLight Rain
8:51 AM78.8 °F77.0 °F94 %29.63 in3.0 miNNW (340°)17.3 mph24.2 mphRainHeavy Rain
8:56 AM77.0 °F77.0 °F100 %29.63 in1.8 miNorth (350°)16.1 mph24.2 mphRainHeavy Rain
8:58 AM77.9 °F77.0 °F97 %29.51 in1.8 miNorth (350°)16.1 mph24.2 mph0.14 inRainHeavy Rain
9:03 AM77.0 °F77.0 °F100 %29.64 in2.5 miNorth (350°)16.1 mphRainHeavy Rain
9:08 AM77.0 °F77.0 °F100 %29.64 in1.8 miNW (310°)11.5 mphRainHeavy Rain
9:18 AM77.0 °F75.2 °F94 %29.64 in3.0 miNorth (360°)8.1 mphRainHeavy Rain
9:28 AM77.0 °F75.2 °F94 %29.64 in7.0 miNW (320°)13.8 mph20.7 mphRainHeavy Rain
9:38 AM77.0 °F75.2 °F94 %29.64 in5.0 miNW (310°)15.0 mphRainRain
9:43 AM77.0 °F75.2 °F94 %29.64 in7.0 miWNW (300°)15.0 mphRainRain
9:49 AM77.0 °F75.2 °F94 %29.64 in10.0 miWNW (300°)13.8 mphRainLight Rain
9:54 AM77.0 °F75.2 °F94 %29.64 in10.0 miWNW (300°)15.0 mphLight Drizzle
9:58 AM76.6 °F75.6 °F96 %29.52 in9.0 miWNW (300°)16.1 mph0.34 inLight Drizzle
10:11 AM77.0 °F75.2 °F94 %29.64 in8.0 miWNW (300°)16.1 mphMostly Cloudy
10:12 AM77.0 °F75.2 °F94 %29.64 in8.0 miWNW (300°)15.0 mphLight Drizzle
10:17 AM77.0 °F77.0 °F100 %29.64 in10.0 miNW (310°)23.0 mph28.8 mphLight Drizzle
10:22 AM77.0 °F75.2 °F94 %29.63 in9.0 miNW (320°)16.1 mph28.8 mphRainLight Rain
10:27 AM77.0 °F75.2 °F94 %29.63 in3.0 miNW (320°)23.0 mph28.8 mphRainHeavy Rain
10:32 AM77.0 °F75.2 °F94 %29.63 in1.5 miNW (320°)17.3 mph28.8 mphRainHeavy Rain
10:37 AM77.0 °F75.2 °F94 %29.64 in1.2 miNW (320°)18.4 mph28.8 mphRainHeavy Rain
10:42 AM77.0 °F75.2 °F94 %29.64 in0.8 miNW (320°)20.7 mph25.3 mphRainHeavy Rain
10:47 AM75.2 °F75.2 °F100 %29.64 in0.8 miNW (310°)15.0 mph25.3 mphRainHeavy Rain
10:52 AM75.2 °F75.2 °F100 %29.64 in1.2 miNW (310°)13.8 mphRainHeavy Rain
10:58 AM75.9 °F75.2 °F98 %29.52 in2.0 miNW (310°)16.1 mph0.61 inRainHeavy Rain
11:03 AM75.2 °F75.2 °F100 %29.64 in0.8 miNW (310°)17.3 mphRainHeavy Rain
11:08 AM75.2 °F75.2 °F100 %29.63 in0.8 miNW (320°)17.3 mphRainHeavy Rain
11:18 AM75.2 °F75.2 °F100 %29.63 in1.0 miNW (320°)16.1 mphRainHeavy Rain
11:33 AM75.2 °F75.2 °F100 %29.63 in1.2 miNW (310°)13.8 mphRainHeavy Rain
11:38 AM75.2 °F75.2 °F100 %29.62 in1.2 miWNW (300°)13.8 mphRainHeavy Rain
11:48 AM75.2 °F75.2 °F100 %29.61 in1.8 miWNW (290°)13.8 mphRainHeavy Rain
11:53 AM75.2 °F75.2 °F100 %29.62 in3.0 miWNW (300°)10.4 mphRainHeavy Rain
11:58 AM75.2 °F75.2 °F100 %29.50 in2.5 miNW (310°)10.4 mph0.77 inRainHeavy Rain
12:08 PM77.0 °F75.2 °F94 %29.61 in2.0 miNW (320°)10.4 mphRainRain
12:13 PM77.0 °F77.0 °F100 %29.61 in1.8 miNW (320°)10.4 mphRainHeavy Rain
12:18 PM77.0 °F77.0 °F100 %29.62 in1.2 miNW (310°)16.1 mphRainHeavy Rain
12:23 PM77.0 °F75.2 °F94 %29.62 in0.5 miNW (310°)17.3 mphFog-RainHeavy Rain
12:28 PM77.0 °F75.2 °F94 %29.62 in0.5 miWNW (290°)16.1 mphFog-RainHeavy Rain
12:33 PM75.2 °F75.2 °F100 %29.63 in0.5 miWNW (300°)23.0 mph29.9 mphFog-RainHeavy Rain
12:38 PM75.2 °F75.2 °F100 %29.62 in0.8 miWNW (300°)20.7 mph31.1 mphRainHeavy Rain
12:53 PM75.2 °F75.2 °F100 %29.60 in1.0 miWNW (300°)24.2 mph32.2 mphRainHeavy Rain
12:58 PM75.4 °F74.5 °F97 %29.48 in1.2 miWNW (300°)21.9 mph33.4 mph1.62 inRainHeavy Rain
1:03 PM75.2 °F75.2 °F100 %29.60 in2.5 miWNW (300°)23.0 mph35.7 mphRainRain
1:07 PM0.0 °F0.0 °FNW (310°)24.2 mph35.7 mph
1:08 PM75.2 °F75.2 °F100 %29.60 in4.0 miWNW (300°)25.3 mph35.7 mphRainHeavy Rain
1:18 PM75.2 °F73.4 °F94 %29.60 in2.0 miWNW (290°)23.0 mph31.1 mphRainHeavy Rain
1:28 PM75.2 °F73.4 °F94 %29.60 in2.5 miWNW (290°)27.6 mph34.5 mphRainHeavy Rain
1:33 PM75.2 °F73.4 °F94 %29.60 in3.0 miWest (280°)25.3 mph34.5 mphRainHeavy Rain
1:38 PM75.2 °F73.4 °F94 %29.60 in2.0 miWest (280°)27.6 mph36.8 mphRainRain
1:43 PM75.2 °F73.4 °F94 %29.59 in1.8 miWest (280°)24.2 mph36.8 mphRainRain
1:48 PM75.2 °F73.4 °F94 %29.59 in3.0 miWNW (290°)21.9 mph28.8 mphRainHeavy Rain
1:58 PM74.8 °F73.9 °F97 %29.47 in5.0 miWest (280°)26.5 mph34.5 mph0.39 inRainHeavy Rain
2:19 PM75.2 °F73.4 °F94 %29.58 in1.2 miWNW (300°)21.9 mph34.5 mphRainHeavy Rain
2:24 PM75.2 °F75.2 °F100 %29.57 in0.8 miWNW (290°)21.9 mph33.4 mphRainHeavy Rain
2:29 PM75.2 °F75.2 °F100 %29.58 in1.0 miWNW (290°)26.5 mph29.9 mphRainHeavy Rain
2:34 PM75.2 °F75.2 °F100 %29.57 in1.5 miWest (280°)25.3 mph35.7 mphRainHeavy Rain
2:58 PM77.0 °F75.2 °F94 %29.45 in1.5 miWNW (300°)23.0 mph31.1 mphRainHeavy Rain
3:03 PM77.0 °F75.2 °F94 %29.56 in3.0 miNW (310°)24.2 mph34.5 mphRainHeavy Rain
3:13 PM77.0 °F75.2 °F94 %29.57 in2.5 miWNW (300°)25.3 mph33.4 mphRainHeavy Rain
3:18 PM77.0 °F75.2 °F94 %29.57 in1.8 miWNW (300°)25.3 mph33.4 mphRainHeavy Rain
3:38 PM75.2 °F75.2 °F100 %29.57 in1.2 miWNW (300°)25.3 mph34.5 mphRainHeavy Rain
3:43 PM75.2 °F75.2 °F100 %29.58 in0.8 miWNW (300°)23.0 mph36.8 mphRainHeavy Rain
3:48 PM75.2 °F75.2 °F100 %29.57 in0.8 miWNW (290°)25.3 mph36.8 mphRainHeavy Rain
3:55 PM0.0 °F0.0 °FWNW (300°)19.6 mph32.2 mph
3:56 PM75.2 °F75.2 °F100 %29.58 in1.2 miWNW (290°)21.9 mph32.2 mphRainHeavy Rain
3:58 PM75.2 °F74.7 °F98 %29.46 in1.0 miWest (280°)26.5 mph31.1 mph1.02 inRainHeavy Rain
4:08 PM75.2 °F75.2 °F100 %29.57 in1.2 miWNW (300°)21.9 mph32.2 mphRainHeavy Rain
4:16 PM75.2 °F75.2 °F100 %29.57 in1.5 miWNW (300°)23.0 mph32.2 mphRainHeavy Rain
4:21 PM75.2 °F75.2 °F100 %29.58 in1.2 miWNW (300°)29.9 mph43.7 mphRainHeavy Rain
4:26 PM75.2 °F75.2 °F100 %29.57 in2.0 miWNW (300°)27.6 mph43.7 mphRainHeavy Rain
4:31 PM75.2 °F75.2 °F100 %29.58 in4.0 miWNW (300°)21.9 mph35.7 mphRainHeavy Rain
4:41 PM77.0 °F75.2 °F94 %29.58 in1.0 miNW (310°)26.5 mph33.4 mphRainHeavy Rain
4:46 PM77.0 °F75.2 °F94 %29.58 in0.5 miWNW (290°)23.0 mph34.5 mphFog-RainHeavy Rain
4:51 PM77.0 °F75.2 °F94 %29.58 in0.8 miWNW (300°)26.5 mph34.5 mphRainHeavy Rain
4:56 PM77.0 °F75.2 °F94 %29.57 in1.2 miNW (310°)18.4 mph31.1 mphRainHeavy Rain
4:58 PM77.0 °F75.2 °F94 %29.46 in1.5 miNW (310°)19.6 mph31.1 mph0.82 inRainHeavy Rain
5:03 PM77.0 °F75.2 °F94 %29.59 in1.5 miNW (310°)23.0 mph28.8 mphRainHeavy Rain
5:08 PM77.0 °F75.2 °F94 %29.59 in1.5 miNW (310°)20.7 mph29.9 mphRainHeavy Rain
5:13 PM0.0 °F0.0 °FNW (310°)21.9 mph29.9 mph
5:14 PM77.0 °F75.2 °F94 %29.59 in1.5 miNW (310°)20.7 mph29.9 mphRainHeavy Rain
5:19 PM77.0 °F75.2 °F94 %29.59 in1.0 miNW (310°)20.7 mphRainHeavy Rain
5:24 PM75.2 °F75.2 °F100 %29.59 in0.8 miWNW (300°)20.7 mphRainHeavy Rain
5:29 PM75.2 °F75.2 °F100 %29.59 in1.2 miWNW (300°)20.7 mph29.9 mphRainHeavy Rain
5:34 PM75.2 °F75.2 °F100 %29.60 in2.0 miWNW (290°)23.0 mph31.1 mphRainHeavy Rain
5:39 PM75.2 °F75.2 °F100 %29.60 in4.0 miWNW (290°)20.7 mph31.1 mphRainHeavy Rain
5:54 PM75.2 °F73.4 °F94 %29.60 in5.0 miWNW (290°)19.6 mphRainLight Rain
5:58 PM75.0 °F74.1 °F97 %29.48 in5.0 miWNW (290°)19.6 mph27.6 mph0.60 inRainLight Rain
6:08 PM75.2 °F75.2 °F100 %29.60 in4.0 miNW (310°)15.0 mph29.9 mphRainLight Rain
6:18 PM77.0 °F75.2 °F94 %29.60 in3.0 miNW (310°)24.2 mph36.8 mphRainRain
6:23 PM77.0 °F75.2 °F94 %29.60 in1.8 miNW (310°)21.9 mph36.8 mphRainHeavy Rain
6:28 PM77.0 °F75.2 °F94 %29.60 in2.5 miNW (310°)18.4 mph36.8 mphRainHeavy Rain
6:33 PM77.0 °F75.2 °F94 %29.61 in4.0 miNW (310°)15.0 mph28.8 mphRainHeavy Rain
6:58 PM76.6 °F75.9 °F98 %29.50 in4.0 miNW (310°)19.6 mph28.8 mph0.56 inRainHeavy Rain
7:08 PM77.0 °F77.0 °F100 %29.62 in2.0 miWNW (300°)20.7 mphRainHeavy Rain
7:13 PM77.0 °F75.2 °F94 %29.63 in1.5 miWNW (290°)23.0 mph31.1 mphRainHeavy Rain
7:18 PM77.0 °F75.2 °F94 %29.62 in1.8 miNW (310°)24.2 mph31.1 mphRainHeavy Rain
7:23 PM77.0 °F75.2 °F94 %29.63 in2.0 miNW (310°)20.7 mph31.1 mphRainHeavy Rain
7:28 PM77.0 °F75.2 °F94 %29.62 in2.0 miNW (320°)18.4 mph27.6 mphRainHeavy Rain
7:33 PM0.0 °F0.0 °FNW (310°)17.3 mph25.3 mph
7:34 PM77.0 °F75.2 °F94 %29.63 in2.5 miNW (310°)17.3 mph25.3 mphRainHeavy Rain
7:39 PM77.0 °F75.2 °F94 %29.63 in3.0 miNW (310°)13.8 mphRainHeavy Rain
7:58 PM76.3 °F75.7 °F98 %29.53 in4.0 miWNW (300°)15.0 mph0.80 inRainHeavy Rain
8:13 PM0.0 °F0.0 °FWNW (290°)20.7 mph26.5 mph
8:14 PM75.2 °F73.4 °F94 %29.66 in1.8 miWNW (290°)24.2 mph36.8 mphRainHeavy Rain
8:18 PM0.0 °F0.0 °FWNW (290°)31.1 mph36.8 mph
8:19 PM73.4 °F73.4 °F100 %29.66 in2.5 miWest (280°)28.8 mph36.8 mphRainHeavy Rain
8:24 PM73.4 °F71.6 °F94 %29.65 in3.0 miWest (280°)23.0 mph36.8 mphRainHeavy Rain
8:29 PM73.4 °F73.4 °F100 %29.65 in3.0 miWNW (290°)17.3 mph33.4 mphRainHeavy Rain
8:49 PM75.2 °F75.2 °F100 %29.65 in8.0 miNW (310°)21.9 mph32.2 mphRainHeavy Rain
8:54 PM75.2 °F75.2 °F100 %29.65 in8.0 miNW (310°)26.5 mph29.9 mphRainRain
8:58 PM76.1 °F75.2 °F97 %29.53 in8.0 miNW (310°)25.3 mph29.9 mph0.69 inRainRain
9:18 PM75.2 °F75.2 °F100 %29.65 in9.0 miWNW (300°)24.2 mph32.2 mphRainLight Rain
9:33 PM75.2 °F73.4 °F94 %29.65 in10.0 miWNW (300°)21.9 mph29.9 mphRainLight Rain
9:58 PM75.9 °F75.0 °F97 %29.53 in10.0 miWNW (300°)19.6 mph27.6 mph0.06 inRainLight Rain
10:05 PM77.0 °F75.2 °F94 %29.65 in10.0 miWNW (290°)23.0 mph28.8 mphMostly Cloudy
10:10 PM77.0 °F75.2 °F94 %29.65 in10.0 miWNW (300°)24.2 mph32.2 mphRainLight Rain
10:15 PM77.0 °F75.2 °F94 %29.65 in10.0 miWNW (300°)21.9 mph32.2 mphRainLight Rain
10:20 PM77.0 °F75.2 °F94 %29.65 in10.0 miWNW (290°)25.3 mph34.5 mphRainLight Rain
10:21 PM77.0 °F75.2 °F94 %29.65 in10.0 miWNW (290°)25.3 mph34.5 mphMostly Cloudy
10:26 PM77.0 °F75.2 °F94 %29.65 in10.0 miWNW (290°)27.6 mph34.5 mphMostly Cloudy
10:31 PM77.0 °F75.2 °F94 %29.65 in10.0 miWNW (290°)26.5 mph34.5 mphScattered Clouds
10:36 PM77.0 °F75.2 °F94 %29.65 in10.0 miWNW (290°)27.6 mph34.5 mphMostly Cloudy
10:59 PM77.0 °F75.2 °F94 %29.53 in10.0 miWNW (290°)25.3 mph38.0 mphMostly Cloudy
11:04 PM77.0 °F75.2 °F94 %29.65 in10.0 miWNW (290°)21.9 mph29.9 mphOvercast
11:05 PM77.0 °F75.2 °F94 %29.65 in10.0 miWNW (290°)21.9 mph29.9 mphLight Drizzle
11:10 PM77.0 °F75.2 °F94 %29.65 in10.0 miWNW (300°)17.3 mph29.9 mphRainLight Rain
11:30 PM75.2 °F75.2 °F100 %29.63 in7.0 miWest (280°)32.2 mph38.0 mphRainLight Rain
11:35 PM73.4 °F71.6 °F94 %29.63 in9.0 miWest (280°)29.9 mph40.3 mphRainLight Rain
11:50 PM73.4 °F73.4 °F100 %29.61 in10.0 miWest (280°)28.8 mph36.8 mphRainLight Rain
11:59 PM73.6 °F72.5 °F96 %29.49 in10.0 miWest (280°)28.8 mph36.8 mph0.01 inLight Drizzle
Hourly data recorded from PGUA, located miles away from Merizo, Guam







STORIES FROM OUR PARTNERS